{"data":{"norad_id":28380,"epoch":"2026-05-25T03:44:52.134144Z","epoch_age_seconds":55571,"freshness":"FRESH","line1":"1 28380U 04028A   26145.15615896  .00000066  00000+0  51952-4 0  9991","line2":"2 28380  82.9597  91.8904 0038321 318.5619  53.0087 13.76332643 96718","mean_motion":13.76332643,"eccentricity":0.0038321,"inclination_deg":82.9597,"raan_deg":91.8904,"arg_perigee_deg":318.5619,"mean_anomaly_deg":53.0087,"bstar":5.1952e-5,"rev_number":9671,"period_min":104.62586986684,"perigee_km":948.73791987721,"apogee_km":1005.1085726165,"semimajor_km":7355.0602462469,"source":"CELESTRAK","updated_at":"2026-05-25T13:38:24.476766Z"}}